Total_Precipitation_Accumulation
1.31 1.33 1.95 3.05 3.39 2.76 2.36 1.77 1.11 1.12 0.95 0.64 0.53 0.58 0.92 1.46 1.64 1.82 1.80 1.43 0.88 0.68 0.80 1.36 1.87 1.72 1.61 1.56 1.54 1.63 1.72 1.70 1.50 1.42 1.33 1.21 1.04 0.90 0.83 0.76 0.69 0.66 0.69 0.62 0.59 0.64 0.73 0.78 0.82
1.17 1.85 2.71 3.60 3.12 2.44 2.35 1.74 1.28 0.97 0.63 0.45 0.43 0.47 0.71 0.78 0.67 1.03 1.89 1.73 0.89 0.72 0.78 1.04 1.68 1.73 1.67 1.63 1.60 1.58 1.56 1.54 1.38 1.30 1.23 1.12 1.09 0.96 0.90 0.80 0.73 0.63 0.57 0.57 0.60 0.59 0.64 0.69 0.72
1.51 2.38 3.27 3.29 2.45 2.22 2.24 1.58 1.10 0.61 0.42 0.44 0.50 0.48 0.65 0.81 0.84 1.30 1.75 1.25 0.83 0.76 0.84 1.17 1.74 1.72 1.67 1.66 1.65 1.70 1.57 1.51 1.34 1.16 1.13 1.08 1.08 0.97 0.93 0.83 0.72 0.64 0.61 0.57 0.60 0.60 0.64 0.72 0.72
1.81 2.60 2.84 2.48 2.06 1.64 1.35 1.17 0.80 0.66 0.52 0.34 0.42 0.56 0.52 0.77 0.98 1.22 1.08 0.76 0.72 0.81 0.90 1.20 1.61 1.66 1.64 1.64 1.65 1.61 1.48 1.40 1.28 1.11 1.08 1.11 1.11 1.02 0.95 0.86 0.77 0.69 0.69 0.64 0.63 0.66 0.72 0.75 0.73
2.12 2.58 2.43 2.00 1.89 1.44 1.04 0.86 0.70 0.83 0.74 0.47 0.40 0.59 0.69 0.95 1.04 1.07 0.96 0.76 0.76 0.83 0.87 1.15 1.54 1.60 1.61 1.52 1.37 1.38 1.39 1.29 1.15 1.08 1.04 1.06 1.03 0.99 0.93 0.96 0.89 0.79 0.74 0.69 0.69 0.70 0.70 0.73 0.76
2.27 2.26 2.10 1.93 1.97 1.64 1.33 0.96 0.79 0.87 0.70 0.46 0.43 0.66 0.83 1.09 1.23 1.13 0.98 0.99 0.94 0.92 0.85 0.97 1.31 1.42 1.42 1.36 1.31 1.36 1.33 1.23 1.08 1.00 0.98 0.98 0.99 0.90 0.83 0.82 0.80 0.80 0.79 0.75 0.71 0.71 0.63 0.66 0.78
2.46 2.25 1.89 1.60 1.83 2.11 1.61 1.04 0.94 0.93 0.87 0.64 0.47 0.74 0.90 1.11 1.21 1.02 0.96 1.14 1.28 1.24 1.06 0.95 1.03 1.19 1.27 1.36 1.37 1.45 1.45 1.34 1.17 1.00 0.98 0.96 0.87 0.72 0.66 0.72 0.76 0.76 0.75 0.76 0.74 0.74 0.68 0.70 0.84
2.08 2.09 1.70 1.65 1.90 2.20 1.60 1.05 0.85 0.82 0.85 0.55 0.50 0.83 1.09 1.04 1.11 1.05 0.98 1.09 1.18 1.23 1.20 1.08 1.02 1.07 1.12 1.22 1.43 1.60 1.70 1.73 1.45 1.11 1.03 0.93 0.77 0.67 0.70 0.70 0.75 0.80 0.84 0.82 0.83 0.84 0.82 0.89 0.92
1.99 2.27 2.06 2.14 2.10 1.76 1.21 1.13 0.83 0.63 0.71 0.66 0.55 0.59 0.77 0.73 0.76 0.89 0.96 0.95 0.88 0.85 0.92 0.98 0.99 1.05 1.04 1.06 1.21 1.50 1.69 1.82 1.49 1.07 1.09 0.94 0.68 0.67 0.74 0.74 0.92 1.01 1.02 1.01 1.04 1.05 1.06 1.05 0.99
2.08 2.10 1.88 1.65 1.45 1.30 1.15 1.05 0.82 0.84 0.99 0.91 0.75 0.65 0.66 0.66 0.74 0.80 0.81 0.81 0.71 0.67 0.64 0.66 0.68 0.75 0.83 0.90 1.16 1.44 1.49 1.61 1.31 1.09 1.12 1.02 1.05 0.98 0.77 0.78 1.05 1.20 1.24 1.16 1.15 1.20 1.12 0.95 0.79
1.61 1.67 1.33 1.09 0.85 0.89 0.93 0.85 0.68 0.80 1.03 0.82 0.69 0.68 0.70 0.73 0.72 0.76 0.76 0.66 0.57 0.51 0.49 0.47 0.49 0.51 0.61 0.86 1.15 1.40 1.49 1.56 1.52 1.52 1.35 1.27 1.20 1.01 0.83 0.80 0.86 0.96 1.05 0.99 1.10 1.10 0.94 0.86 0.75
1.47 1.27 1.05 0.98 0.75 0.77 0.76 0.71 0.76 0.70 0.68 0.53 0.48 0.54 0.70 0.79 0.73 0.66 0.70 0.67 0.59 0.54 0.52 0.45 0.37 0.39 0.49 0.65 0.86 1.18 1.34 1.42 1.41 1.38 1.14 1.18 1.17 0.99 0.92 1.01 1.05 1.01 1.00 1.15 1.20 1.17 1.12 0.95 0.78
1.42 1.20 0.92 0.69 0.65 0.63 0.65 0.69 0.71 0.64 0.51 0.47 0.45 0.54 0.72 0.82 0.78 0.67 0.61 0.57 0.57 0.63 0.71 0.66 0.51 0.46 0.51 0.57 0.60 0.76 0.93 1.02 1.27 1.34 1.02 0.97 0.98 1.03 1.06 0.97 1.11 1.18 1.17 1.18 1.19 1.11 1.07 1.08 0.95
1.24 1.01 0.80 0.65 0.62 0.59 0.64 0.65 0.63 0.71 0.53 0.50 0.53 0.62 0.73 0.81 0.80 0.67 0.57 0.50 0.47 0.48 0.59 0.64 0.62 0.65 0.64 0.56 0.48 0.48 0.55 0.68 0.83 0.87 0.78 0.78 0.80 0.91 1.09 1.03 1.01 1.09 1.27 1.33 1.28 1.18 1.24 1.25 1.08
0.84 0.86 0.87 0.74 0.68 0.67 0.73 0.86 0.63 0.59 0.51 0.50 0.54 0.62 0.61 0.61 0.62 0.54 0.48 0.39 0.38 0.40 0.43 0.50 0.56 0.62 0.67 0.72 0.67 0.53 0.53 0.60 0.63 0.64 0.67 0.72 0.71 0.84 1.01 0.97 0.89 0.89 1.05 1.25 1.39 1.42 1.42 1.27 1.18
0.99 0.95 1.18 0.91 0.80 0.72 0.84 0.93 0.55 0.53 0.52 0.49 0.52 0.65 0.61 0.48 0.42 0.40 0.42 0.41 0.37 0.39 0.37 0.42 0.43 0.50 0.61 0.74 0.79 0.74 0.69 0.65 0.60 0.56 0.51 0.53 0.53 0.62 0.82 0.90 0.83 0.83 1.02 1.24 1.45 1.57 1.63 1.48 1.43
1.24 1.14 1.04 0.92 0.78 0.66 0.64 0.64 0.49 0.45 0.44 0.44 0.47 0.56 0.56 0.42 0.36 0.33 0.30 0.32 0.35 0.36 0.36 0.36 0.39 0.41 0.50 0.62 0.68 0.66 0.63 0.60 0.59 0.57 0.46 0.43 0.44 0.54 0.75 0.95 1.00 1.00 1.11 1.25 1.30 1.52 1.63 1.70 1.64
0.97 0.84 0.80 0.72 0.63 0.56 0.51 0.44 0.43 0.38 0.37 0.41 0.43 0.48 0.47 0.34 0.28 0.27 0.27 0.29 0.35 0.35 0.35 0.36 0.37 0.38 0.41 0.44 0.51 0.55 0.50 0.50 0.56 0.54 0.53 0.55 0.61 0.67 0.85 1.09 1.19 1.31 1.35 1.43 1.59 1.89 1.91 1.81 1.83
0.74 0.69 0.65 0.52 0.43 0.45 0.42 0.41 0.43 0.40 0.36 0.37 0.39 0.37 0.42 0.34 0.30 0.23 0.21 0.20 0.26 0.30 0.30 0.33 0.36 0.36 0.34 0.30 0.35 0.40 0.39 0.48 0.56 0.62 0.67 0.73 0.75 0.82 1.03 1.25 1.50 1.64 1.54 1.56 1.78 2.05 2.22 2.07 1.94
0.74 0.74 0.70 0.61 0.45 0.42 0.41 0.42 0.40 0.37 0.35 0.30 0.27 0.26 0.31 0.30 0.27 0.23 0.20 0.17 0.16 0.18 0.22 0.28 0.29 0.28 0.26 0.24 0.28 0.36 0.42 0.48 0.62 0.77 0.87 0.90 0.88 0.94 0.99 1.20 1.41 1.50 1.57 1.63 1.75 1.99 2.33 2.21 1.99
0.67 0.62 0.56 0.63 0.55 0.50 0.52 0.54 0.44 0.39 0.37 0.30 0.23 0.24 0.28 0.27 0.23 0.22 0.21 0.19 0.15 0.17 0.18 0.22 0.26 0.27 0.26 0.31 0.48 0.73 0.97 1.06 1.08 1.09 1.23 1.31 1.28 1.24 1.21 1.24 1.39 1.48 1.62 1.72 1.77 1.80 2.09 2.23 2.11
0.71 0.51 0.43 0.53 0.66 0.63 0.52 0.58 0.40 0.38 0.40 0.33 0.27 0.25 0.26 0.28 0.25 0.21 0.18 0.18 0.14 0.16 0.20 0.22 0.24 0.30 0.32 0.47 0.77 1.14 1.45 1.53 1.53 1.66 1.69 1.75 1.68 1.54 1.53 1.52 1.62 1.58 1.55 1.58 1.61 1.60 1.82 2.18 2.28
0.68 0.55 0.53 0.56 0.58 0.55 0.36 0.38 0.31 0.32 0.40 0.36 0.33 0.32 0.33 0.30 0.28 0.23 0.20 0.19 0.19 0.22 0.27 0.31 0.36 0.48 0.64 0.78 0.94 1.22 1.39 1.48 1.62 1.77 1.92 2.05 2.15 2.10 2.03 1.97 1.84 1.67 1.58 1.60 1.65 1.65 1.74 1.88 2.05
0.49 0.60 0.70 0.69 0.65 0.61 0.29 0.26 0.30 0.31 0.32 0.34 0.34 0.36 0.35 0.30 0.25 0.24 0.26 0.27 0.29 0.37 0.42 0.45 0.56 0.64 0.72 0.83 0.95 1.09 1.15 1.29 1.47 1.62 1.80 1.96 2.07 2.07 2.01 1.88 1.67 1.51 1.46 1.52 1.66 1.69 1.74 1.74 1.82
0.47 0.68 0.94 0.98 0.90 0.63 0.24 0.23 0.27 0.22 0.21 0.24 0.26 0.25 0.25 0.27 0.27 0.27 0.26 0.32 0.37 0.44 0.49 0.57 0.65 0.74 0.78 0.85 0.94 1.00 1.04 1.16 1.31 1.35 1.40 1.44 1.46 1.47 1.49 1.49 1.48 1.42 1.36 1.45 1.66 1.75 1.77 1.75 1.74
0.39 0.48 0.78 0.91 0.72 0.49 0.25 0.31 0.31 0.19 0.15 0.12 0.14 0.18 0.22 0.30 0.33 0.32 0.31 0.39 0.47 0.55 0.65 0.72 0.78 0.81 0.84 0.92 1.00 0.98 1.06 1.17 1.26 1.19 1.13 1.16 1.21 1.27 1.27 1.35 1.38 1.36 1.37 1.40 1.52 1.67 1.76 1.75 1.67
0.37 0.38 0.44 0.52 0.40 0.41 0.31 0.29 0.22 0.12 0.10 0.09 0.14 0.22 0.30 0.39 0.41 0.43 0.44 0.50 0.57 0.65 0.74 0.79 0.85 0.88 0.95 0.96 1.03 1.16 1.19 1.19 1.17 1.05 0.99 1.00 0.96 0.97 1.06 1.16 1.24 1.21 1.22 1.27 1.39 1.56 1.60 1.69 1.74
0.30 0.39 0.46 0.52 0.55 0.52 0.35 0.30 0.25 0.16 0.16 0.20 0.26 0.34 0.45 0.56 0.58 0.60 0.65 0.69 0.72 0.75 0.81 0.85 0.91 0.97 0.98 0.98 1.09 1.27 1.21 0.97 0.81 0.72 0.75 0.79 0.82 0.85 0.91 0.89 0.86 0.84 0.89 0.92 1.05 1.25 1.34 1.40 1.49
0.30 0.29 0.36 0.43 0.43 0.61 0.73 0.73 0.60 0.55 0.45 0.49 0.51 0.59 0.75 0.78 0.80 0.79 0.83 0.86 0.83 0.83 0.89 0.89 0.92 1.03 1.05 0.99 1.08 1.12 0.91 0.65 0.53 0.52 0.50 0.48 0.49 0.54 0.62 0.57 0.55 0.61 0.66 0.64 0.73 0.84 0.95 1.07 1.17
0.23 0.23 0.24 0.42 0.44 0.50 0.82 0.89 0.78 0.79 0.76 0.86 0.93 1.07 1.02 0.97 0.96 0.88 0.84 0.83 0.74 0.72 0.79 0.84 0.94 1.00 0.92 0.86 0.85 0.70 0.53 0.41 0.38 0.34 0.29 0.24 0.23 0.24 0.31 0.33 0.34 0.42 0.54 0.56 0.63 0.67 0.70 0.81 0.91